Location: Cz?stochówka
(50.8142°N, 19.0915°E)
Time: 09:32:19
(UTC+00:00)

SAR-Lupe-4 - Pass Details

Date: 13 January 2026
Orbit: 480 x 483 km, 98.1° (Epoch: 10 January)

Event Time Altitude Azimuth Distance (km) Brightness Sun altitude
Rises 05:52:12 0° 14° (NNE) 2,562 7.1 -7.6°
Reaches altitude 10° 05:54:16 10° 14° (NNE) 1,677 6.2 -7.3°
Maximum altitude 05:57:53 89° 288° (WNW) 491 3.6 -6.8°
Drops below altitude 10° 06:01:27 10° 196° (SSW) 1,661 6.4 -6.2°
Sets 06:03:30 0° 196° (SSW) 2,535 7.4 -6.0°
